Location: Krasnoyarskiy Pitomnik
(51.1333°N, 71.6167°E)
Time: 08:44:14
(UTC+00:00)

MOS 1-B - Pass Details

Date: 22 October 2021
Orbit: 905 x 913 km, 99.4° (Epoch: 06 December)

Event Time Altitude Azimuth Distance (km) Brightness Sun altitude
Rises 12:38:01 0° 157° (SSE) 3,530 7.3 -5.6°
Reaches altitude 10° 12:40:25 10° 156° (SSE) 2,591 6.6 -6.0°
Maximum altitude 12:46:11 79° 71° (ENE) 933 4.3 -6.9°
Drops below altitude 10° 12:52:00 10° 346° (NNW) 2,603 6.8 -7.8°
Sets 12:54:25 0° 345° (NNW) 3,548 7.5 -8.2°
